Simultaneous Nadir Overpasses (SNOs) Predictions

Prediction of SNOs between METOP-B and NOAA-19 Satellite Orbit:

Table of predicted SNOs for the next 14.0 days since TLE Epoch: 1/23/2021
Index Date (METOP-B) Time (METOP-B) Lat,Lon (METOP-B) SZA (METOP-B ) Date (NOAA-19) Time (NOAA-19) Lat,Lon (NOAA-19) SZA (NOAA-19 ) Distance(km) Time Diff (sec)
1 01/29/2021 02:09:03 80.37, 174.13 98.96 01/29/2021 02:08:09 80.38, 173.98 98.95 2.83 54
2 01/29/2021 02:59:44 -80.38, -18.41 81.03 01/29/2021 02:59:03 -80.36, -18.48 81.07 2.61 41
3 01/29/2021 03:50:25 80.36, 148.65 98.93 01/29/2021 03:50:09 80.37, 148.63 98.93 1.06 16
4 01/29/2021 04:41:06 -80.37, -43.88 81.07 01/29/2021 04:41:03 -80.35, -43.83 81.08 2.13 3
5 01/29/2021 05:31:47 80.35, 123.17 98.89 01/29/2021 05:32:09 80.36, 123.27 98.91 2.30 22
6 01/29/2021 06:22:28 -80.36, -69.36 81.11 01/29/2021 06:23:04 -80.36, -69.52 81.10 3.02 36
7 01/29/2021 07:13:08 80.36, 98.02 98.89 01/29/2021 07:14:09 80.35, 97.92 98.89 2.15 61



Historial Predications of SNOs between METOP-B and NOAA-19
